This is the latest recevied weather packets stored in our database for station/object DL1AIE-13. If no packets are shown the sender has not sent any weather packets the latest 10 day(s).
| Time | Temp. | Humidity | Pressure | Rain* | Wind** | Luminosity | Snow |
|---|---|---|---|---|---|---|---|
| 1777714954 | 22.22° C | 39% | 1021.7 hPa | 0 mm | - | - | - |
| 1777714350 | 23.33° C | 39% | 1021.8 hPa | 0 mm | - | - | - |
| 1777713747 | 21.67° C | 41% | 1021.9 hPa | 0 mm | - | - | - |
| 1777713143 | 21.67° C | 44% | 1022 hPa | 0 mm | - | - | - |
| 1777712538 | - | - | 1022.2 hPa | 0 mm | - | - | - |
| 1777711955 | - | - | 1022.2 hPa | 0 mm | - | - | - |
| 1777711351 | 20° C | 50% | 1022.3 hPa | 0 mm | - | - | - |
| 1777710747 | 20° C | 49% | 1022.3 hPa | 0 mm | - | - | - |
| 1777710144 | 20° C | 49% | 1022.3 hPa | 0 mm | - | - | - |
| 1777709544 | 19.44° C | 51% | 1022.4 hPa | 0 mm | - | - | - |
| 1777708956 | 18.33° C | 54% | 1022.5 hPa | 0 mm | - | - | - |
| 1777708352 | 17.78° C | 57% | 1022.4 hPa | 0 mm | - | - | - |
| 1777707748 | 20° C | 51% | 1022.4 hPa | 0 mm | - | - | - |
| 1777707145 | 18.89° C | 47% | 1022.6 hPa | 0 mm | - | - | - |
| 1777706545 | 17.78° C | 50% | 1022.6 hPa | 0 mm | - | - | - |
| 1777705938 | 16.67° C | 55% | 1022.6 hPa | 0 mm | - | - | - |
| 1777705354 | 15.56° C | 58% | 1022.7 hPa | 0 mm | - | - | - |
| 1777704750 | 15° C | 61% | 1023 hPa | 0 mm | - | - | - |
| 1777704147 | 13.89° C | 63% | 1022.9 hPa | 0 mm | - | - | - |
| 1777703543 | 13.33° C | 68% | 1022.9 hPa | 0 mm | - | - | - |
| 1777702942 | 12.78° C | 72% | 1023 hPa | 0 mm | - | - | - |
| 1777702336 | 12.78° C | 71% | 1023.1 hPa | 0 mm | - | - | - |
| 1777701752 | 11.11° C | 76% | 1023.1 hPa | 0 mm | - | - | - |
| 1777701149 | 11.11° C | 75% | 1023.1 hPa | 0 mm | - | - | - |
| 1777700545 | 9.44° C | 80% | 1023.1 hPa | 0 mm | - | - | - |
* Rain latest hour (hover to see other rain measurements)
** Current wind speed in m/s (hover to see current wind gust speed)